Terminal Aerodrome Forecast
Issued by NWS Amarillo, TX

Home | Current Version | Previous Version | Text Only | Print | Product List | Glossary On
Versions: 1 2 3 4 5 6 7 8 9 10 11 12 13 14 15 16 17
000
FTUS44 KAMA 201723
TAFDHT
TAF
KDHT 201723Z 2018/2118 03015KT P6SM FEW080
     FM202000 05016KT P6SM SCT100
     FM210500 03012KT P6SM BKN025=

USA.gov is the U.S. government's official web portal to all federal, state and local government web resources and services.